Location: Unspecified
(42.3650°N, 71.1030°W)
Time: 09:54:09
(UTC+00:00)

Tiros 1 - Pass Details

Date: 27 June 2024
Orbit: 624 x 656 km, 48.4° (Epoch: 20 July)

Event Time Altitude Azimuth Distance (km) Brightness Sun altitude
Rises 07:14:19 0° 295° (WNW) 2,909 10.4 -16.1°
Reaches altitude 10° 07:16:40 10° 300° (WNW) 2,004 9.6 -15.9°
Maximum altitude 07:21:12 56° 19° (NNE) 749 7.8 -15.4°
Drops below altitude 10° 07:25:46 10° 98° (E) 2,016 10.1 -14.9°
Sets 07:28:09 0° 103° (ESE) 2,929 10.9 -14.6°
